Covington, KY

8:49 AM EDT on April 23, 2017 (GMT -0400)
Cincinnati-Northern KY International

Weather History for KCVG - August, 2013

Change the Weather History Date:

Saturday, August 24, 2013

  Actual Average Record
Temperature  
Mean Temperature 76 °F 74 °F  
Max Temperature 87 °F 85 °F 101 °F (2007)
Min Temperature 64 °F 64 °F 50 °F (1942)
Degree Days  
Heating Degree Days 0 0  
Month to date heating degree days 2 0  
Since 1 June heating degree days 5 15  
Since 1 July heating degree days 4 0  
Cooling Degree Days 11 9  
Month to date cooling degree days 199 248  
Year to date cooling degree days 881 907  
Since 1 June cooling degree days 742 813  
Growing Degree Days 26 (Base 50)    
Moisture  
Dew Point 60 °F    
Average Humidity 60    
Maximum Humidity 84    
Minimum Humidity 36    
Precipitation  
Precipitation 0.00 in 0.10 in 1.59 in (1977)
Month to date precipitation 2.11 2.71  
Year to date precipitation 31.47 29.09  
Snow  
Snow 0.00 in 0.00 in 0.00 in ()
Month to date snowfall 0.0 0.0  
Since 1 June snowfall 0.0 0.0  
Since 1 July snowfall 0.0 0.0  
Snow Depth 0.00 in    
Sea Level Pressure  
Sea Level Pressure 30.21 in    
Wind  
Wind Speed 5 mph (East)    
Max Wind Speed 13 mph    
Max Gust Speed 21 mph    
Visibility 10 miles    
Events      
T = Trace of Precipitation, MM = Missing Value Source: NWS Daily Summary

Daily Weather History Graph

Daily Weather History Graph

Search for Another Location

Airport or City:

Trip Planner

Search our weather history database for the weather conditions in past years. The results will help you decide how hot, cold, wet, or windy it might be!

Date:

Astronomy

Aug. 24, 2013 Rise Set
Actual Time 7:00 AM EDT 8:20 PM EDT
Civil Twilight 6:32 AM EDT 8:48 PM EDT
Nautical Twilight 5:59 AM EDT 9:21 PM EDT
Astronomical Twilight 5:24 AM EDT 9:56 PM EDT
Moon 10:17 PM EDT (8/24) 10:56 AM EDT (8/24)
Length of Visible Light 14h 16m
Length of Day
13h 20m
Waning Gibbous, 84% of the Moon is Illuminated
Aug 24
Waning Gibbous
Aug 28
Last Quarter
Sep 5
New
Sep 12
First Quarter
Sep 19
Full

Hourly Weather History & Observations

Time (EDT) Temp. Heat Index Dew Point Humidity Pressure Visibility Wind Dir Wind Speed Gust Speed Precip Events Conditions
12:52 AM 73.0 °F - 63.0 °F 71% 30.14 in 10.0 mi ENE 11.5 mph - N/A   Clear
1:52 AM 72.0 °F - 62.1 °F 71% 30.15 in 10.0 mi ENE 6.9 mph - N/A   Clear
2:52 AM 70.0 °F - 60.1 °F 71% 30.14 in 10.0 mi ENE 6.9 mph - N/A   Clear
3:52 AM 68.0 °F - 60.1 °F 76% 30.15 in 10.0 mi Calm Calm - N/A   Clear
4:52 AM 66.9 °F - 59.0 °F 76% 30.17 in 10.0 mi North 3.5 mph - N/A   Clear
5:52 AM 66.9 °F - 59.0 °F 76% 30.18 in 10.0 mi NE 5.8 mph - N/A   Clear
6:52 AM 64.0 °F - 59.0 °F 84% 30.20 in 10.0 mi NNE 3.5 mph - N/A   Clear
7:52 AM 66.0 °F - 60.1 °F 81% 30.22 in 10.0 mi NE 5.8 mph - N/A   Clear
8:52 AM 69.1 °F - 60.1 °F 73% 30.24 in 10.0 mi East 5.8 mph - N/A   Clear
9:52 AM 73.0 °F - 61.0 °F 66% 30.25 in 10.0 mi East 4.6 mph - N/A   Partly Cloudy
10:52 AM 77.0 °F - 63.0 °F 62% 30.25 in 10.0 mi NNE 3.5 mph - N/A   Scattered Clouds
11:52 AM 80.1 °F 81.7 °F 64.0 °F 58% 30.25 in 10.0 mi Calm Calm - N/A   Scattered Clouds
12:52 PM 82.0 °F 83.1 °F 63.0 °F 52% 30.23 in 10.0 mi Calm Calm - N/A   Scattered Clouds
1:52 PM 84.0 °F 84.0 °F 60.1 °F 44% 30.22 in 10.0 mi NNE 4.6 mph - N/A   Scattered Clouds
2:52 PM 86.0 °F 85.7 °F 60.1 °F 41% 30.21 in 10.0 mi Variable 5.8 mph - N/A   Scattered Clouds
3:52 PM 87.1 °F 86.1 °F 57.9 °F 37% 30.20 in 10.0 mi NE 4.6 mph - N/A   Scattered Clouds
4:52 PM 86.0 °F 85.0 °F 57.9 °F 38% 30.20 in 10.0 mi ESE 4.6 mph - N/A   Scattered Clouds
5:52 PM 84.9 °F 83.9 °F 57.0 °F 38% 30.20 in 10.0 mi ESE 8.1 mph - N/A   Scattered Clouds
6:52 PM 82.9 °F 82.1 °F 55.9 °F 39% 30.20 in 10.0 mi SE 10.4 mph - N/A   Scattered Clouds
7:52 PM 80.1 °F 80.4 °F 57.0 °F 45% 30.21 in 10.0 mi ESE 6.9 mph - N/A   Partly Cloudy
8:52 PM 75.9 °F - 59.0 °F 56% 30.21 in 10.0 mi ESE 6.9 mph - N/A   Partly Cloudy
9:52 PM 75.0 °F - 60.1 °F 60% 30.23 in 10.0 mi ESE 6.9 mph - N/A   Partly Cloudy
10:52 PM 73.0 °F - 60.1 °F 64% 30.24 in 10.0 mi ESE 6.9 mph - N/A   Partly Cloudy
11:52 PM 69.1 °F - 61.0 °F 75% 30.25 in 10.0 mi SSE 3.5 mph - N/A   Clear